This demonstration page uses our WeatherBlox Daily Observations layout. Learn more.

36.17497, -115.13722

Hourly Observations for July 1, 2015

Temp ( °F °C ) Dew Point ( °F °C ) Humidity (%) Winds ( mph kmh ) Pressure ( in mb ) Visibility ( mi km ) Precip ( " mm )
12:53 am 00:53 Clear 99 37 57 14 25 25 NNE 7 11 29.56 1001 10 16.09344 0 0
1:53 am 01:53 Clear 97 36 57 14 27 27 ENE 5 7 29.56 1001 10 16.09344 0 0
2:53 am 02:53 Clear 93 34 55 13 28 28 S 18 30 29.65 1004 8 12.874752 0 0
3:53 am 03:53 Clear 90 32 59 15 36 36 SW 22 35 29.65 1004 10 16.09344 0 0
4:53 am 04:53 Clear 90 32 55 13 31 31 WSW 24 39 29.71 1006 10 16.09344 0 0
5:53 am 05:53 Sunny 90 32 55 13 31 31 WSW 16 26 29.71 1006 10 16.09344 0 0
6:53 am 06:53 Sunny 90 32 57 14 33 33 NW 6 9 29.74 1007 10 16.09344 0 0
7:53 am 07:53 Sunny 93 34 55 13 28 28 NNW 23 37 29.74 1007 10 16.09344 0 0
8:53 am 08:53 Sunny 95 35 55 13 26 26 NNW 22 35 29.74 1007 10 16.09344 0 0
9:53 am 09:53 Sunny 99 37 55 13 24 24 N 21 33 29.71 1006 10 16.09344 0 0
10:53 am 10:53 Sunny 99 37 55 13 24 24 N 9 15 29.71 1006 10 16.09344 0 0
11:53 am 11:53 Sunny 100 38 55 13 22 22 Calm 29.68 1005 10 16.09344 0 0
12:53 pm 12:53 Sunny 102 39 55 13 21 21 Calm 29.68 1005 10 16.09344 0 0
1:53 pm 13:53 Sunny 104 40 54 12 19 19 W 8 13 29.62 1003 10 16.09344 0 0
2:53 pm 14:53 Sunny 106 41 55 13 19 19 undefined N/A 29.59 1002 10 16.09344 0 0
3:53 pm 15:53 Sunny 106 41 55 13 19 19 W 14 22 29.56 1001 10 16.09344 0 0
4:53 pm 16:53 Sunny 109 43 48 9 13 13 N 5 7 29.47 998 10 16.09344 0 0
5:53 pm 17:53 Sunny 104 40 55 13 20 20 SW 17 28 29.53 1000 10 16.09344 0 0
6:53 pm 18:53 Sunny 102 39 54 12 20 20 SW 14 22 29.53 1000 10 16.09344 0 0
7:53 pm 19:53 Sunny 100 38 54 12 21 21 SSW 9 15 29.59 1002 10 16.09344 0 0
8:53 pm 20:53 Clear 100 38 54 12 21 21 WNW 7 11 29.59 1002 10 16.09344 0.001 0.001
9:53 pm 21:53 Clear 99 37 54 12 22 22 SSE 6 9 29.62 1003 10 16.09344 0 0
10:53 pm 22:53 Clear 93 34 57 14 30 30 NE 21 33 29.68 1005 10 16.09344 0 0
11:53 pm 23:53 Clear 91 33 55 13 30 30 NE 18 30 29.71 1006 10 16.09344 0 0

Powered by AerisWeather